When you browse on this site, cookies collect data to enhance your experience and personalize the content and advertising you see.
Visit our Privacy Policy to learn more. By continuing to use the site, you agree to this use of cookies and data.
  • In Schweiz
  • Länderverzeichnis
  • Für 7 Tage
  • Wassertemperatur
  • Satellitenkarten
  • Wetterkarte
  • Widgets
  • user-avatar
    Anmelden

    Stündliche Wetter Townsville

    Heute, 16 Juni, Sonntag

    Zeit Temperatur Niederschläge Wind Luftdruck Luftfeuchtigkeit
    00:00 +19°C° 0 mm 2 m/S 755 mmHg 88%
    01:00 +19°C° 0 mm 2 m/S 755 mmHg 87%
    02:00 +19°C° 0 mm 2 m/S 755 mmHg 86%
    03:00 +19°C° 0 mm 2 m/S 755 mmHg 84%
    04:00 +19°C° 0 mm 2 m/S 755 mmHg 83%
    05:00 +19°C° 0 mm 2 m/S 755 mmHg 82%
    06:00 +19°C° 0 mm 2 m/S 755 mmHg 81%
    07:00 +19°C° 0 mm 3 m/S 756 mmHg 80%
    08:00 +20°C° 0 mm 2 m/S 756 mmHg 75%
    09:00 +23°C° 0 mm 2 m/S 756 mmHg 71%
    10:00 +24°C° 0 mm 2 m/S 756 mmHg 66%
    11:00 +25°C° 0 mm 2 m/S 756 mmHg 65%
    12:00 +26°C° 0 mm 2 m/S 755 mmHg 64%
    13:00 +27°C° 0 mm 2 m/S 754 mmHg 62%
    14:00 +27°C° 0 mm 3 m/S 754 mmHg 65%
    15:00 +26°C° 0 mm 3 m/S 754 mmHg 67%
    16:00 +26°C° 0 mm 3 m/S 754 mmHg 69%
    17:00 +25°C° 0.1 mm 3 m/S 754 mmHg 76%
    18:00 +23°C° 0.1 mm 2 m/S 755 mmHg 83%
    19:00 +21°C° 0.1 mm 2 m/S 755 mmHg 91%
    20:00 +21°C° 0 mm 2 m/S 755 mmHg 91%
    21:00 +21°C° 0 mm 1 m/S 756 mmHg 92%
    22:00 +21°C° 0 mm 1 m/S 756 mmHg 92%
    23:00 +21°C° 0.1 mm 1 m/S 756 mmHg 92%

    Morgen, 17 Juni, Montag

    Zeit Temperatur Niederschläge Wind Luftdruck Luftfeuchtigkeit
    00:00 +21°C° 0.1 mm 1 m/S 755 mmHg 92%
    01:00 +21°C° 0.1 mm 1 m/S 755 mmHg 92%
    02:00 +21°C° 0.2 mm 1 m/S 755 mmHg 91%
    03:00 +20°C° 0.2 mm 2 m/S 755 mmHg 91%
    04:00 +20°C° 0.2 mm 2 m/S 755 mmHg 90%
    05:00 +19°C° 0.1 mm 2 m/S 755 mmHg 90%
    06:00 +19°C° 0.1 mm 2 m/S 755 mmHg 90%
    07:00 +19°C° 0.1 mm 2 m/S 755 mmHg 90%
    08:00 +21°C° 0 mm 2 m/S 756 mmHg 80%
    09:00 +23°C° 0 mm 2 m/S 756 mmHg 71%
    10:00 +25°C° 0 mm 2 m/S 756 mmHg 61%
    11:00 +26°C° 0 mm 2 m/S 756 mmHg 54%
    12:00 +27°C° 0 mm 2 m/S 755 mmHg 47%
    13:00 +28°C° 0 mm 2 m/S 754 mmHg 40%
    14:00 +28°C° 0 mm 2 m/S 754 mmHg 41%
    15:00 +28°C° 0 mm 2 m/S 754 mmHg 41%
    16:00 +27°C° 0 mm 2 m/S 754 mmHg 42%
    17:00 +26°C° 0 mm 2 m/S 754 mmHg 47%
    18:00 +24°C° 0 mm 2 m/S 754 mmHg 51%
    19:00 +21°C° 0 mm 2 m/S 755 mmHg 56%
    20:00 +20°C° 0 mm 3 m/S 755 mmHg 55%
    21:00 +20°C° 0 mm 4 m/S 756 mmHg 54%
    22:00 +19°C° 0 mm 4 m/S 756 mmHg 54%
    23:00 +19°C° 0 mm 4 m/S 756 mmHg 55%

    übermorgen, 18 Juni, Dienstag

    Zeit Temperatur Niederschläge Wind Luftdruck Luftfeuchtigkeit
    00:00 +18°C° 0 mm 4 m/S 756 mmHg 55%
    01:00 +17°C° 0 mm 3 m/S 756 mmHg 56%
    02:00 +17°C° 0 mm 3 m/S 756 mmHg 57%
    03:00 +17°C° 0 mm 3 m/S 756 mmHg 58%
    04:00 +16°C° 0 mm 2 m/S 755 mmHg 59%
    05:00 +16°C° 0 mm 2 m/S 756 mmHg 60%
    06:00 +15°C° 0 mm 2 m/S 756 mmHg 62%
    07:00 +15°C° 0 mm 2 m/S 756 mmHg 63%
    08:00 +17°C° 0 mm 2 m/S 756 mmHg 57%
    09:00 +20°C° 0 mm 2 m/S 756 mmHg 51%
    10:00 +23°C° 0 mm 2 m/S 756 mmHg 44%
    11:00 +24°C° 0 mm 2 m/S 756 mmHg 42%
    12:00 +25°C° 0 mm 2 m/S 755 mmHg 40%
    13:00 +26°C° 0 mm 2 m/S 755 mmHg 38%
    14:00 +26°C° 0 mm 2 m/S 754 mmHg 38%
    15:00 +25°C° 0 mm 2 m/S 754 mmHg 39%
    16:00 +25°C° 0 mm 2 m/S 754 mmHg 40%
    17:00 +23°C° 0 mm 2 m/S 755 mmHg 46%
    18:00 +21°C° 0 mm 1 m/S 755 mmHg 52%
    19:00 +19°C° 0 mm 1 m/S 756 mmHg 58%
    20:00 +18°C° 0 mm 2 m/S 756 mmHg 57%
    21:00 +17°C° 0 mm 2 m/S 756 mmHg 55%
    22:00 +16°C° 0 mm 3 m/S 756 mmHg 54%
    23:00 +16°C° 0 mm 3 m/S 756 mmHg 53%

    19 Juni, Mittwoch

    Zeit Temperatur Niederschläge Wind Luftdruck Luftfeuchtigkeit
    00:00 +14°C° 0 mm 3 m/S 756 mmHg 52%
    01:00 +14°C° 0 mm 3 m/S 756 mmHg 52%
    02:00 +14°C° 0 mm 3 m/S 756 mmHg 52%
    03:00 +13°C° 0 mm 3 m/S 756 mmHg 52%
    04:00 +13°C° 0 mm 3 m/S 756 mmHg 52%
    05:00 +13°C° 0 mm 3 m/S 756 mmHg 53%
    06:00 +12°C° 0 mm 3 m/S 756 mmHg 54%
    07:00 +12°C° 0 mm 3 m/S 757 mmHg 54%
    08:00 +14°C° 0 mm 3 m/S 757 mmHg 48%
    09:00 +18°C° 0 mm 3 m/S 757 mmHg 43%
    10:00 +20°C° 0 mm 3 m/S 757 mmHg 37%
    11:00 +21°C° 0 mm 3 m/S 757 mmHg 34%
    12:00 +22°C° 0 mm 3 m/S 756 mmHg 32%
    13:00 +24°C° 0 mm 3 m/S 755 mmHg 29%
    14:00 +24°C° 0 mm 3 m/S 755 mmHg 31%
    15:00 +24°C° 0 mm 3 m/S 755 mmHg 32%
    16:00 +24°C° 0 mm 3 m/S 754 mmHg 34%
    17:00 +21°C° 0 mm 3 m/S 755 mmHg 41%
    18:00 +19°C° 0 mm 2 m/S 756 mmHg 48%
    19:00 +17°C° 0 mm 2 m/S 756 mmHg 55%
    20:00 +16°C° 0 mm 2 m/S 756 mmHg 57%
    21:00 +16°C° 0 mm 2 m/S 757 mmHg 59%
    22:00 +15°C° 0 mm 2 m/S 757 mmHg 61%
    23:00 +15°C° 0 mm 2 m/S 756 mmHg 61%

    20 Juni, Donnerstag

    Zeit Temperatur Niederschläge Wind Luftdruck Luftfeuchtigkeit
    00:00 +14°C° 0 mm 2 m/S 756 mmHg 62%
    01:00 +14°C° 0 mm 2 m/S 756 mmHg 63%
    02:00 +14°C° 0 mm 2 m/S 756 mmHg 65%
    03:00 +13°C° 0 mm 2 m/S 756 mmHg 67%
    04:00 +13°C° 0 mm 2 m/S 755 mmHg 69%
    05:00 +13°C° 0 mm 2 m/S 756 mmHg 69%
    06:00 +13°C° 0 mm 2 m/S 756 mmHg 70%
    07:00 +13°C° 0 mm 2 m/S 757 mmHg 70%
    08:00 +15°C° 0 mm 2 m/S 757 mmHg 63%
    09:00 +18°C° 0 mm 2 m/S 757 mmHg 55%
    10:00 +20°C° 0 mm 2 m/S 757 mmHg 48%
    11:00 +21°C° 0 mm 2 m/S 756 mmHg 45%
    12:00 +23°C° 0 mm 2 m/S 756 mmHg 43%
    13:00 +24°C° 0 mm 3 m/S 755 mmHg 41%
    14:00 +23°C° 0 mm 2 m/S 755 mmHg 44%
    15:00 +23°C° 0 mm 2 m/S 754 mmHg 46%
    16:00 +22°C° 0 mm 1 m/S 754 mmHg 49%
    17:00 +21°C° 0 mm 1 m/S 755 mmHg 56%
    18:00 +19°C° 0 mm 1 m/S 755 mmHg 63%
    19:00 +16°C° 0 mm 1 m/S 756 mmHg 70%
    20:00 +16°C° 0 mm 1 m/S 756 mmHg 68%
    21:00 +16°C° 0 mm 2 m/S 756 mmHg 67%
    22:00 +15°C° 0 mm 2 m/S 756 mmHg 66%
    23:00 +15°C° 0 mm 2 m/S 756 mmHg 63%

    21 Juni, Freitag

    Zeit Temperatur Niederschläge Wind Luftdruck Luftfeuchtigkeit
    00:00 +15°C° 0 mm 2 m/S 756 mmHg 61%
    01:00 +15°C° 0 mm 2 m/S 756 mmHg 58%
    02:00 +13°C° 0 mm 3 m/S 755 mmHg 59%
    03:00 +13°C° 0 mm 3 m/S 755 mmHg 60%
    04:00 +13°C° 0 mm 3 m/S 755 mmHg 61%
    05:00 +12°C° 0 mm 3 m/S 755 mmHg 64%
    06:00 +12°C° 0 mm 4 m/S 756 mmHg 66%
    07:00 +12°C° 0 mm 4 m/S 756 mmHg 69%
    08:00 +14°C° 0 mm 4 m/S 756 mmHg 62%
    09:00 +17°C° 0 mm 4 m/S 756 mmHg 55%
    10:00 +20°C° 0 mm 4 m/S 756 mmHg 48%
    11:00 +21°C° 0 mm 4 m/S 756 mmHg 45%
    12:00 +22°C° 0 mm 4 m/S 755 mmHg 42%
    13:00 +25°C° 0 mm 4 m/S 754 mmHg 38%
    14:00 +25°C° 0 mm 4 m/S 754 mmHg 38%
    15:00 +25°C° 0 mm 4 m/S 754 mmHg 38%
    16:00 +23°C° 0 mm 4 m/S 754 mmHg 38%
    17:00 +22°C° 0 mm 4 m/S 754 mmHg 41%
    18:00 +20°C° 0 mm 5 m/S 755 mmHg 44%
    19:00 +17°C° 0 mm 5 m/S 756 mmHg 47%
    20:00 +16°C° 0 mm 5 m/S 756 mmHg 49%
    21:00 +15°C° 0 mm 5 m/S 756 mmHg 51%
    22:00 +14°C° 0 mm 5 m/S 757 mmHg 53%
    23:00 +14°C° 0 mm 5 m/S 757 mmHg 54%
    Mehr zeigen